Lid_Strength_Index
13 13 13 14 13 12 13 14 15 15 15 13 11 11 11 10 11 11 11 11 11 12 13 12 11 12 12 12 12 12 12 12 11 11 11 10 10 10 9 9 7 8 7 8
15 13 13 14 13 13 13 13 13 14 13 10 10 10 10 10 11 11 11 11 11 12 12 12 12 12 12 12 12 12 12 12 11 10 10 10 10 10 9 7 8 9 9 8
19 15 16 18 14 13 13 13 12 15 12 11 11 10 10 10 10 11 11 10 11 11 12 12 12 12 13 13 12 12 12 12 11 10 10 10 10 10 9 8 8 8 8 8
20 19 22 14 12 11 12 11 11 11 11 10 10 10 10 10 10 11 11 11 11 12 13 13 13 13 13 13 13 13 12 12 11 11 11 10 10 9 8 7 7 9 8 8
20 21 17 15 11 11 12 12 10 11 11 10 10 10 10 9 10 10 11 11 11 11 13 13 13 13 13 13 13 13 12 12 11 10 11 10 9 9 8 7 8 8 7 8
22 22 23 15 12 10 10 15 9 10 11 11 11 15 10 10 9 10 10 11 12 13 13 14 14 13 13 13 13 13 12 11 11 10 10 10 9 9 8 9 8 8 8 9
23 23 18 13 10 9 15 14 9 9 10 11 11 10 10 10 10 10 11 12 12 12 13 13 13 13 13 13 13 12 11 11 10 10 10 9 9 9 9 9 9 9 9 10
20 23 19 11 10 12 10 11 9 9 9 9 10 10 10 9 11 13 13 12 12 13 13 13 13 13 13 13 12 11 11 11 11 10 9 8 9 10 9 10 10 11 14 13
15 16 12 10 10 9 9 10 9 9 9 8 10 9 8 12 12 13 12 13 13 13 12 12 12 12 13 12 11 11 11 11 10 9 9 8 9 10 10 10 12 12 11 14
13 11 10 9 9 8 8 8 8 8 8 8 9 9 12 13 13 13 13 13 13 13 13 13 12 12 12 11 11 11 11 10 9 9 8 8 8 8 9 12 13 10 12 12
12 10 10 8 8 7 7 7 8 7 7 8 9 12 12 12 13 13 13 12 13 13 13 13 12 12 11 11 11 11 10 9 9 9 9 8 8 8 8 9 9 11 12 12
13 9 10 9 8 7 7 7 7 8 9 11 11 12 12 13 12 12 13 13 13 13 13 12 12 12 12 11 10 10 9 8 8 7 6 7 8 7 6 6 6 6 6 12
9 9 9 9 8 7 7 7 7 9 11 12 11 11 12 12 12 12 13 12 13 13 12 12 12 12 11 10 10 9 8 7 7 7 6 7 9 9 10 9 6 5 5 6
7 8 9 9 8 8 7 9 10 11 11 12 12 11 12 12 12 12 12 12 12 12 12 12 12 11 10 9 9 8 7 7 7 8 8 7 8 9 10 13 13 13 9 6
7 7 8 8 10 12 11 11 12 12 12 12 11 11 12 13 13 12 12 12 12 12 12 11 11 10 9 9 8 7 6 7 8 8 13 12 11 11 10 11 11 13 14 12
9 8 9 12 12 12 12 12 12 13 12 11 11 12 12 12 12 12 11 12 13 13 11 14 13 10 9 8 7 6 6 7 8 8 9 12 12 10 10 11 10 12 14 14
10 12 12 13 12 11 11 12 12 11 10 11 12 13 12 13 14 13 13 14 15 15 13 13 11 9 8 8 7 6 5 6 8 11 9 7 9 11 11 12 10 11 13 16
10 10 10 10 11 11 12 11 11 11 12 12 13 15 16 17 14 14 15 16 17 14 12 11 10 9 8 7 6 7 6 6 7 7 8 8 8 9 12 12 12 11 11 16
10 10 10 10 10 10 11 12 13 13 14 15 15 15 15 15 16 14 16 17 16 14 10 10 9 10 7 6 7 6 6 6 7 8 8 10 14 12 12 14 13 12 11 12
10 10 11 13 13 13 13 13 13 12 12 14 15 16 15 14 17 17 15 12 11 10 10 10 10 10 8 6 7 6 5 5 6 8 9 12 13 13 13 13 12 11 11 11
12 13 14 13 13 14 14 13 14 13 13 16 15 14 15 13 14 9 10 10 9 11 10 11 10 9 7 6 6 5 4 4 5 7 8 8 8 9 9 9 9 9 9 9
12 13 14 14 15 14 14 15 13 13 14 15 15 14 14 12 11 12 9 7 6 9 10 11 10 10 8 6 6 5 4 4 5 5 6 6 6 7 7 7 7 7 7 8
11 12 13 14 14 13 13 14 15 15 14 13 12 12 13 10 11 10 8 8 8 10 10 10 8 7 6 7 5 5 4 4 4 4 5 6 5 6 6 6 6 6 6 6
11 11 12 14 14 13 11 9 10 11 13 12 12 12 12 11 9 9 7 7 8 6 6 6 6 6 8 6 6 5 5 5 5 5 6 6 5 6 6 6 7 6 6 6
12 11 12 12 11 10 10 9 10 10 9 8 7 7 8 10 7 6 5 6 7 6 6 7 7 6 9 10 12 10 9 8 8 8 7 6 6 6 6 7 7 7 6 6
10 10 10 10 10 10 10 9 9 8 8 8 7 6 6 8 9 9 7 7 7 6 6 6 11 12 13 15 17 17 16 14 15 16 16 15 14 13 11 10 7 6 6 6
9 10 10 10 10 10 11 11 11 10 9 8 8 7 7 7 6 6 5 5 5 6 9 11 13 14 16 16 16 17 17 17 18 17 18 18 17 17 17 16 15 13 8 6